Time,TemperatureF,DewpointF,PressureIn,WindDirection,WindDirectionDegrees,WindSpeedMPH,WindSpeedGustMPH,Humidity,HourlyPrecipIn,Conditions,Clouds,dailyrainin,SoftwareType,DateUTC
2013-02-18 00:00:00,47.7,31.8,29.70,SSE,158,5.6,6.7,54,0.00,,,0.00,WUHU216HW,2013-02-18 06:00:00,
2013-02-18 00:05:00,47.7,31.8,29.70,South,180,6.0,6.7,54,0.00,,,0.00,WUHU216HW,2013-02-18 06:05:00,
2013-02-18 00:10:00,47.5,31.6,29.70,SSE,158,5.4,6.3,54,0.00,,,0.00,WUHU216HW,2013-02-18 06:10:00,
2013-02-18 00:15:00,47.5,31.6,29.70,South,180,6.0,6.0,54,0.00,,,0.00,WUHU216HW,2013-02-18 06:15:00,
2013-02-18 00:20:00,47.5,31.6,29.69,SSE,158,5.8,6.0,54,0.00,,,0.00,WUHU216HW,2013-02-18 06:20:00,
2013-02-18 00:25:00,47.7,31.8,29.69,South,180,6.7,6.7,54,0.00,,,0.00,WUHU216HW,2013-02-18 06:25:00,
2013-02-18 00:30:00,47.7,31.8,29.70,SSE,158,5.4,6.7,54,0.00,,,0.00,WUHU216HW,2013-02-18 06:30:00,
2013-02-18 00:35:00,47.7,31.8,29.69,SSW,203,4.7,6.7,54,0.00,,,0.00,WUHU216HW,2013-02-18 06:35:00,
2013-02-18 00:40:00,47.3,31.4,29.69,South,180,4.9,6.9,54,0.00,,,0.00,WUHU216HW,2013-02-18 06:40:00,
2013-02-18 00:45:00,47.3,31.4,29.69,South,180,4.9,6.9,54,0.00,,,0.00,WUHU216HW,2013-02-18 06:45:00,
2013-02-18 00:50:00,47.3,31.9,29.69,South,180,5.8,5.8,55,0.00,,,0.00,WUHU216HW,2013-02-18 06:50:00,
2013-02-18 00:55:00,47.5,32.0,29.69,South,180,5.6,5.8,55,0.00,,,0.00,WUHU216HW,2013-02-18 06:55:00,
2013-02-18 01:00:00,47.5,32.0,29.69,SSW,203,4.3,5.8,55,0.00,,,0.00,WUHU216HW,2013-02-18 07:00:00,
2013-02-18 01:05:00,47.7,31.8,29.69,SSE,158,6.5,6.5,54,0.00,,,0.00,WUHU216HW,2013-02-18 07:05:00,
2013-02-18 01:10:00,47.9,32.0,29.68,South,180,5.4,6.5,54,0.00,,,0.00,WUHU216HW,2013-02-18 07:10:00,
2013-02-18 01:15:00,47.9,32.0,29.68,SSE,158,5.8,6.3,54,0.00,,,0.00,WUHU216HW,2013-02-18 07:15:00,
2013-02-18 01:20:00,48.1,32.1,29.68,South,180,6.3,6.3,54,0.00,,,0.00,WUHU216HW,2013-02-18 07:20:00,
2013-02-18 01:25:00,48.2,32.3,29.68,South,180,6.0,6.3,54,0.00,,,0.00,WUHU216HW,2013-02-18 07:25:00,
2013-02-18 01:30:00,48.2,32.3,29.68,South,180,3.8,6.3,54,0.00,,,0.00,WUHU216HW,2013-02-18 07:30:00,
2013-02-18 01:35:00,48.4,32.1,29.67,South,180,6.0,6.7,53,0.00,,,0.00,WUHU216HW,2013-02-18 07:35:00,
2013-02-18 01:40:00,48.6,32.1,29.67,SSW,203,6.5,6.9,53,0.00,,,0.00,WUHU216HW,2013-02-18 07:40:00,
2013-02-18 01:45:00,48.6,32.1,29.67,South,180,6.0,6.9,53,0.00,,,0.00,WUHU216HW,2013-02-18 07:45:00,
2013-02-18 01:50:00,48.4,32.1,29.67,South,180,6.9,6.9,53,0.00,,,0.00,WUHU216HW,2013-02-18 07:50:00,
2013-02-18 01:55:00,48.6,32.1,29.66,SSE,158,4.0,6.9,53,0.00,,,0.00,WUHU216HW,2013-02-18 07:55:00,
2013-02-18 02:00:00,48.6,32.1,29.66,SSE,158,5.1,6.9,53,0.00,,,0.00,WUHU216HW,2013-02-18 08:00:00,
2013-02-18 02:05:00,48.6,32.1,29.66,SSE,158,5.4,6.5,53,0.00,,,0.00,WUHU216HW,2013-02-18 08:05:00,
2013-02-18 02:10:00,48.6,32.1,29.65,South,180,6.3,6.5,53,0.00,,,0.00,WUHU216HW,2013-02-18 08:10:00,
2013-02-18 02:15:00,48.6,32.1,29.65,SSE,158,6.9,6.9,53,0.00,,,0.00,WUHU216HW,2013-02-18 08:15:00,
2013-02-18 02:20:00,48.6,32.1,29.65,SSE,158,6.9,6.9,53,0.00,,,0.00,WUHU216HW,2013-02-18 08:20:00,
2013-02-18 02:25:00,48.6,32.1,29.64,SSE,158,5.1,6.9,53,0.00,,,0.00,WUHU216HW,2013-02-18 08:25:00,
2013-02-18 02:30:00,48.6,32.1,29.64,South,180,10.1,10.1,53,0.00,,,0.00,WUHU216HW,2013-02-18 08:30:00,
2013-02-18 02:35:00,48.4,32.1,29.64,SE,135,6.3,10.1,53,0.00,,,0.00,WUHU216HW,2013-02-18 08:35:00,
2013-02-18 02:40:00,48.2,31.9,29.64,SSE,158,6.3,10.1,53,0.00,,,0.00,WUHU216HW,2013-02-18 08:40:00,
2013-02-18 02:45:00,47.9,31.5,29.64,SSE,158,7.6,7.6,53,0.00,,,0.00,WUHU216HW,2013-02-18 08:45:00,
2013-02-18 02:50:00,47.7,31.8,29.63,SSE,158,4.7,7.6,54,0.00,,,0.00,WUHU216HW,2013-02-18 08:50:00,
2013-02-18 02:55:00,47.3,31.4,29.63,SSE,158,8.7,9.2,54,0.00,,,0.00,WUHU216HW,2013-02-18 08:55:00,
2013-02-18 03:00:00,47.3,31.9,29.63,SE,135,9.4,10.1,55,0.00,,,0.00,WUHU216HW,2013-02-18 09:00:00,
2013-02-18 03:05:00,47.2,31.8,29.63,SE,135,9.6,10.1,55,0.00,,,0.00,WUHU216HW,2013-02-18 09:05:00,
2013-02-18 03:10:00,47.2,31.8,29.63,SSE,158,9.2,9.6,55,0.00,,,0.00,WUHU216HW,2013-02-18 09:10:00,
2013-02-18 03:15:00,47.0,32.1,29.62,SSE,158,8.3,9.2,56,0.00,,,0.00,WUHU216HW,2013-02-18 09:15:00,
2013-02-18 03:20:00,46.8,31.9,29.62,South,180,6.9,11.9,56,0.00,,,0.00,WUHU216HW,2013-02-18 09:20:00,
2013-02-18 03:25:00,46.8,31.9,29.61,SSE,158,8.7,11.9,56,0.00,,,0.00,WUHU216HW,2013-02-18 09:25:00,
2013-02-18 03:30:00,46.6,31.7,29.62,SE,135,8.5,8.7,56,0.00,,,0.00,WUHU216HW,2013-02-18 09:30:00,
2013-02-18 03:35:00,46.4,31.5,29.61,SSW,203,5.8,8.7,56,0.00,,,0.00,WUHU216HW,2013-02-18 09:35:00,
2013-02-18 03:40:00,46.3,31.8,29.61,SE,135,8.5,8.5,57,0.00,,,0.00,WUHU216HW,2013-02-18 09:40:00,
2013-02-18 03:45:00,46.1,31.6,29.62,South,180,4.0,8.5,57,0.00,,,0.00,WUHU216HW,2013-02-18 09:45:00,
2013-02-18 03:50:00,46.3,31.8,29.62,SSE,158,5.4,8.5,57,0.00,,,0.00,WUHU216HW,2013-02-18 09:50:00,
2013-02-18 03:55:00,46.3,31.8,29.62,North,0,0.0,5.4,57,0.00,,,0.00,WUHU216HW,2013-02-18 09:55:00,
2013-02-18 04:00:00,46.3,31.8,29.62,North,0,0.0,5.4,57,0.00,,,0.00,WUHU216HW,2013-02-18 10:00:00,
2013-02-18 04:05:00,46.3,31.8,29.62,North,0,0.0,0.0,57,0.00,,,0.00,WUHU216HW,2013-02-18 10:05:00,
2013-02-18 04:10:00,46.3,31.8,29.61,North,0,0.0,0.0,57,0.00,,,0.00,WUHU216HW,2013-02-18 10:10:00,
2013-02-18 04:15:00,46.1,31.6,29.61,North,0,0.0,0.0,57,0.00,,,0.00,WUHU216HW,2013-02-18 10:15:00,
2013-02-18 04:20:00,45.9,31.5,29.61,North,0,0.0,0.0,57,0.00,,,0.00,WUHU216HW,2013-02-18 10:20:00,
2013-02-18 04:25:00,45.9,31.5,29.61,North,0,0.0,0.0,57,0.00,,,0.00,WUHU216HW,2013-02-18 10:25:00,
2013-02-18 04:30:00,45.9,31.5,29.61,North,0,0.0,0.0,57,0.00,,,0.00,WUHU216HW,2013-02-18 10:30:00,
2013-02-18 04:35:00,45.7,31.3,29.61,North,0,0.0,0.0,57,0.00,,,0.00,WUHU216HW,2013-02-18 10:35:00,
2013-02-18 04:40:00,45.7,31.3,29.61,North,0,0.0,0.0,57,0.00,,,0.00,WUHU216HW,2013-02-18 10:40:00,
2013-02-18 04:45:00,45.5,31.1,29.61,North,0,0.0,0.0,57,0.00,,,0.00,WUHU216HW,2013-02-18 10:45:00,
2013-02-18 04:50:00,45.5,31.6,29.61,North,0,0.0,0.0,58,0.00,,,0.00,WUHU216HW,2013-02-18 10:50:00,
2013-02-18 04:55:00,45.4,31.4,29.61,North,0,0.0,0.0,58,0.00,,,0.00,WUHU216HW,2013-02-18 10:55:00,
2013-02-18 05:00:00,45.4,31.4,29.61,North,0,0.0,0.0,58,0.00,,,0.00,WUHU216HW,2013-02-18 11:00:00,
2013-02-18 05:05:00,45.4,31.4,29.62,North,0,0.0,0.0,58,0.00,,,0.00,WUHU216HW,2013-02-18 11:05:00,
2013-02-18 05:10:00,45.0,31.2,29.61,North,0,0.0,0.0,58,0.00,,,0.00,WUHU216HW,2013-02-18 11:10:00,
2013-02-18 05:15:00,45.0,31.2,29.61,North,0,0.0,0.0,58,0.00,,,0.00,WUHU216HW,2013-02-18 11:15:00,
2013-02-18 05:20:00,44.8,31.0,29.62,North,0,0.0,0.0,58,0.00,,,0.00,WUHU216HW,2013-02-18 11:20:00,
2013-02-18 05:25:00,44.8,31.0,29.62,North,0,0.0,0.0,58,0.00,,,0.00,WUHU216HW,2013-02-18 11:25:00,
2013-02-18 05:30:00,44.5,31.1,29.62,North,0,0.0,0.0,59,0.00,,,0.00,WUHU216HW,2013-02-18 11:30:00,
2013-02-18 05:35:00,44.3,30.9,29.61,North,0,0.0,0.0,59,0.00,,,0.00,WUHU216HW,2013-02-18 11:35:00,
2013-02-18 05:41:00,44.1,30.7,29.62,North,0,0.0,0.0,59,0.00,,,0.00,WUHU216HW,2013-02-18 11:41:00,
2013-02-18 05:46:00,43.9,31.0,29.61,North,0,0.0,0.0,60,0.00,,,0.00,WUHU216HW,2013-02-18 11:46:00,
2013-02-18 05:51:00,43.9,31.3,29.61,North,0,0.0,0.0,61,0.00,,,0.00,WUHU216HW,2013-02-18 11:51:00,
2013-02-18 05:56:00,43.7,31.1,29.61,North,0,0.0,0.0,61,0.00,,,0.00,WUHU216HW,2013-02-18 11:56:00,
2013-02-18 06:01:00,43.6,31.0,29.61,North,0,0.0,0.0,61,0.00,,,0.00,WUHU216HW,2013-02-18 12:01:00,
2013-02-18 06:06:00,43.6,31.4,29.61,North,0,0.0,0.0,62,0.00,,,0.00,WUHU216HW,2013-02-18 12:06:00,
2013-02-18 06:11:00,43.6,31.4,29.61,North,0,0.0,0.0,62,0.00,,,0.00,WUHU216HW,2013-02-18 12:11:00,
2013-02-18 06:16:00,43.6,31.8,29.61,North,0,0.0,0.0,63,0.00,,,0.00,WUHU216HW,2013-02-18 12:16:00,
2013-02-18 06:21:00,43.6,31.4,29.61,North,0,0.0,0.0,62,0.00,,,0.00,WUHU216HW,2013-02-18 12:21:00,
2013-02-18 06:26:00,43.4,31.2,29.61,North,0,0.0,0.0,62,0.00,,,0.00,WUHU216HW,2013-02-18 12:26:00,
2013-02-18 06:31:00,43.4,31.6,29.61,North,0,0.0,0.0,63,0.00,,,0.00,WUHU216HW,2013-02-18 12:31:00,
2013-02-18 06:36:00,43.6,31.8,29.61,North,0,0.0,0.0,63,0.00,,,0.00,WUHU216HW,2013-02-18 12:36:00,
2013-02-18 06:41:00,43.4,31.6,29.61,North,0,0.0,0.0,63,0.00,,,0.00,WUHU216HW,2013-02-18 12:41:00,
2013-02-18 06:46:00,43.4,31.6,29.61,North,0,0.0,0.0,63,0.00,,,0.00,WUHU216HW,2013-02-18 12:46:00,
2013-02-18 06:51:00,43.2,31.8,29.61,North,0,0.0,0.0,64,0.00,,,0.00,WUHU216HW,2013-02-18 12:51:00,
2013-02-18 06:56:00,42.8,31.5,29.61,North,0,0.0,0.0,64,0.00,,,0.00,WUHU216HW,2013-02-18 12:56:00,
2013-02-18 07:01:00,42.8,31.5,29.61,North,0,0.0,0.0,64,0.00,,,0.00,WUHU216HW,2013-02-18 13:01:00,
2013-02-18 07:06:00,42.8,31.5,29.61,North,0,0.0,0.0,64,0.00,,,0.00,WUHU216HW,2013-02-18 13:06:00,
2013-02-18 07:11:00,43.0,31.7,29.61,North,0,0.0,0.0,64,0.00,,,0.00,WUHU216HW,2013-02-18 13:11:00,
2013-02-18 07:16:00,43.0,31.7,29.62,North,0,0.0,0.0,64,0.00,,,0.00,WUHU216HW,2013-02-18 13:16:00,
2013-02-18 07:21:00,43.2,31.4,29.62,North,0,0.0,0.0,63,0.00,,,0.00,WUHU216HW,2013-02-18 13:21:00,
2013-02-18 07:26:00,43.0,31.2,29.62,North,0,0.0,0.0,63,0.00,,,0.00,WUHU216HW,2013-02-18 13:26:00,
2013-02-18 07:31:00,42.7,31.7,29.62,North,0,0.0,0.0,65,0.00,,,0.00,WUHU216HW,2013-02-18 13:31:00,
2013-02-18 07:36:00,42.5,31.5,29.62,North,0,0.0,0.0,65,0.00,,,0.00,WUHU216HW,2013-02-18 13:36:00,
2013-02-18 07:41:00,42.7,31.7,29.63,NNE,23,0.2,0.4,65,0.00,,,0.00,WUHU216HW,2013-02-18 13:41:00,
2013-02-18 07:46:00,42.8,32.2,29.63,NNE,23,0.2,0.4,66,0.00,,,0.00,WUHU216HW,2013-02-18 13:46:00,
2013-02-18 07:51:00,42.7,32.0,29.63,North,0,0.0,0.2,66,0.00,,,0.00,WUHU216HW,2013-02-18 13:51:00,
2013-02-18 07:56:00,42.7,32.0,29.62,North,0,0.0,0.2,66,0.00,,,0.00,WUHU216HW,2013-02-18 13:56:00,
2013-02-18 08:01:00,43.2,33.8,29.62,North,0,0.0,0.0,69,0.00,,,0.00,WUHU216HW,2013-02-18 14:01:00,
2013-02-18 08:06:00,43.9,36.2,29.62,North,0,0.0,0.0,74,0.00,,,0.00,WUHU216HW,2013-02-18 14:06:00,
2013-02-18 08:11:00,47.2,39.6,29.62,North,0,0.0,0.0,75,0.00,,,0.00,WUHU216HW,2013-02-18 14:11:00,
2013-02-18 08:16:00,49.0,40.0,29.61,North,0,0.0,0.0,71,0.00,,,0.00,WUHU216HW,2013-02-18 14:16:00,
2013-02-18 08:21:00,50.0,40.3,29.61,North,0,0.0,0.0,69,0.00,,,0.00,WUHU216HW,2013-02-18 14:21:00,
2013-02-18 08:26:00,50.2,40.1,29.61,North,0,0.0,0.0,68,0.00,,,0.00,WUHU216HW,2013-02-18 14:26:00,
2013-02-18 08:31:00,50.8,40.6,29.61,North,0,0.0,0.0,68,0.00,,,0.00,WUHU216HW,2013-02-18 14:31:00,
2013-02-18 08:36:00,51.1,41.0,29.61,North,0,0.0,0.0,68,0.00,,,0.00,WUHU216HW,2013-02-18 14:36:00,
2013-02-18 08:41:00,51.7,41.5,29.61,North,0,0.0,0.0,68,0.00,,,0.00,WUHU216HW,2013-02-18 14:41:00,
2013-02-18 08:46:00,51.8,41.7,29.62,North,0,0.0,0.0,68,0.00,,,0.00,WUHU216HW,2013-02-18 14:46:00,
2013-02-18 08:51:00,52.0,41.9,29.62,North,0,0.0,0.0,68,0.00,,,0.00,WUHU216HW,2013-02-18 14:51:00,
2013-02-18 08:56:00,52.2,41.9,29.61,North,0,0.0,0.0,68,0.00,,,0.00,WUHU216HW,2013-02-18 14:56:00,
2013-02-18 09:01:00,52.2,41.9,29.61,North,0,0.0,0.0,68,0.00,,,0.00,WUHU216HW,2013-02-18 15:01:00,
2013-02-18 09:06:00,52.6,42.8,29.61,SW,225,11.9,11.9,69,0.00,,,0.00,WUHU216HW,2013-02-18 15:06:00,
2013-02-18 09:11:00,52.6,42.8,29.61,SW,225,8.9,11.9,69,0.00,,,0.00,WUHU216HW,2013-02-18 15:11:00,
2013-02-18 09:16:00,52.7,42.9,29.61,SW,225,9.6,11.9,69,0.00,,,0.00,WUHU216HW,2013-02-18 15:16:00,
2013-02-18 09:21:00,52.9,43.0,29.61,SW,225,12.5,13.0,69,0.00,,,0.00,WUHU216HW,2013-02-18 15:21:00,
2013-02-18 09:26:00,52.9,43.0,29.61,South,180,7.2,13.0,69,0.00,,,0.00,WUHU216HW,2013-02-18 15:26:00,
2013-02-18 09:31:00,52.9,43.0,29.61,SSW,203,7.6,12.5,69,0.00,,,0.00,WUHU216HW,2013-02-18 15:31:00,
2013-02-18 09:36:00,52.9,43.0,29.61,SSW,203,9.4,10.7,69,0.00,,,0.00,WUHU216HW,2013-02-18 15:36:00,
2013-02-18 09:41:00,52.9,43.0,29.61,West,270,9.4,9.4,69,0.00,,,0.00,WUHU216HW,2013-02-18 15:41:00,
2013-02-18 09:46:00,52.7,40.9,29.62,NW,315,10.5,10.5,64,0.00,,,0.00,WUHU216HW,2013-02-18 15:46:00,
2013-02-18 09:51:00,51.1,38.5,29.63,WNW,293,11.4,11.4,62,0.00,,,0.00,WUHU216HW,2013-02-18 15:51:00,
2013-02-18 09:57:00,50.0,36.3,29.63,NW,315,6.7,11.4,59,0.00,,,0.00,WUHU216HW,2013-02-18 15:57:00,
2013-02-18 10:02:00,49.1,35.9,29.63,NNW,338,6.3,11.4,60,0.00,,,0.00,WUHU216HW,2013-02-18 16:02:00,
2013-02-18 10:07:00,48.1,35.3,29.64,NW,315,5.6,7.6,61,0.00,,,0.00,WUHU216HW,2013-02-18 16:07:00,
2013-02-18 10:12:00,46.8,34.8,29.64,NNW,338,3.4,8.1,63,0.00,,,0.00,WUHU216HW,2013-02-18 16:12:00,
2013-02-18 10:17:00,45.7,34.2,29.64,NW,315,6.3,9.6,64,0.00,,,0.00,WUHU216HW,2013-02-18 16:17:00,
2013-02-18 10:22:00,45.2,34.5,29.64,North,0,7.2,10.5,66,0.00,,,0.00,WUHU216HW,2013-02-18 16:22:00,
2013-02-18 10:27:00,44.6,34.3,29.65,NNW,338,6.9,10.5,67,0.00,,,0.00,WUHU216HW,2013-02-18 16:27:00,
2013-02-18 10:32:00,44.1,34.2,29.65,North,0,6.3,10.3,68,0.00,,,0.00,WUHU216HW,2013-02-18 16:32:00,
2013-02-18 10:37:00,43.6,34.5,29.65,NNE,23,3.4,10.3,70,0.00,,,0.00,WUHU216HW,2013-02-18 16:37:00,
2013-02-18 10:42:00,43.0,34.3,29.66,NNW,338,5.6,7.2,71,0.00,,,0.00,WUHU216HW,2013-02-18 16:42:00,
2013-02-18 10:47:00,42.8,33.8,29.66,NW,315,5.4,7.2,70,0.00,,,0.00,WUHU216HW,2013-02-18 16:47:00,
2013-02-18 10:52:00,42.7,34.0,29.66,NW,315,9.4,9.4,71,0.00,,,0.00,WUHU216HW,2013-02-18 16:52:00,
2013-02-18 10:57:00,42.7,34.0,29.67,NW,315,5.6,13.0,71,0.00,,,0.00,WUHU216HW,2013-02-18 16:57:00,
2013-02-18 11:02:00,42.3,33.7,29.67,East,90,8.5,13.0,71,0.00,,,0.00,WUHU216HW,2013-02-18 17:02:00,
2013-02-18 11:07:00,42.3,33.9,29.67,NNW,338,8.3,8.5,72,0.00,,,0.00,WUHU216HW,2013-02-18 17:07:00,
2013-02-18 11:12:00,41.9,34.2,29.68,NNW,338,8.7,8.7,74,0.00,,,0.00,WUHU216HW,2013-02-18 17:12:00,
2013-02-18 11:17:00,41.6,34.6,29.68,NW,315,8.7,8.9,76,0.00,,,0.00,WUHU216HW,2013-02-18 17:17:00,
2013-02-18 11:22:00,41.2,34.8,29.68,NNW,338,9.4,9.4,78,0.00,,,0.00,WUHU216HW,2013-02-18 17:22:00,
2013-02-18 11:27:00,41.0,34.9,29.69,NNW,338,8.9,9.4,79,0.02,,,0.02,WUHU216HW,2013-02-18 17:27:00,
2013-02-18 11:32:00,40.7,34.9,29.69,NNW,338,6.7,9.6,80,0.02,,,0.02,WUHU216HW,2013-02-18 17:32:00,
2013-02-18 11:37:00,40.5,35.4,29.69,NNW,338,8.1,11.2,82,0.03,,,0.03,WUHU216HW,2013-02-18 17:37:00,
2013-02-18 11:42:00,40.3,35.2,29.69,NNW,338,9.8,11.2,82,0.06,,,0.05,WUHU216HW,2013-02-18 17:42:00,
2013-02-18 11:47:00,40.1,35.4,29.70,NNW,338,13.4,13.4,83,0.07,,,0.07,WUHU216HW,2013-02-18 17:47:00,
2013-02-18 11:52:00,40.0,34.9,29.70,NW,315,6.5,13.4,82,0.07,,,0.07,WUHU216HW,2013-02-18 17:52:00,
2013-02-18 11:57:00,40.0,35.2,29.70,NNW,338,10.5,11.2,83,0.08,,,0.08,WUHU216HW,2013-02-18 17:57:00,
2013-02-18 12:02:00,40.0,35.2,29.70,NNW,338,8.1,10.5,83,0.08,,,0.08,WUHU216HW,2013-02-18 18:02:00,
2013-02-18 12:07:00,40.0,34.9,29.70,NNW,338,6.9,10.5,82,0.08,,,0.08,WUHU216HW,2013-02-18 18:07:00,
2013-02-18 12:12:00,40.0,34.9,29.70,NW,315,8.1,10.5,82,0.08,,,0.08,WUHU216HW,2013-02-18 18:12:00,
2013-02-18 12:17:00,40.0,35.2,29.70,NW,315,6.0,10.5,83,0.08,,,0.08,WUHU216HW,2013-02-18 18:17:00,
2013-02-18 12:22:00,40.0,35.2,29.70,NNW,338,4.9,11.6,83,0.06,,,0.08,WUHU216HW,2013-02-18 18:22:00,
2013-02-18 12:27:00,40.0,34.6,29.70,NNW,338,10.7,17.7,81,0.06,,,0.08,WUHU216HW,2013-02-18 18:27:00,
2013-02-18 12:32:00,40.0,34.6,29.70,NNW,338,9.8,17.7,81,0.07,,,0.09,WUHU216HW,2013-02-18 18:32:00,
2013-02-18 12:37:00,40.0,34.6,29.69,NNW,338,10.7,13.2,81,0.06,,,0.09,WUHU216HW,2013-02-18 18:37:00,
2013-02-18 12:42:00,40.0,34.3,29.70,NNW,338,9.6,11.9,80,0.02,,,0.09,WUHU216HW,2013-02-18 18:42:00,
2013-02-18 12:47:00,40.1,34.5,29.70,NW,315,10.5,12.1,80,0.02,,,0.09,WUHU216HW,2013-02-18 18:47:00,
2013-02-18 12:52:00,40.1,34.5,29.70,North,0,7.2,12.1,80,0.02,,,0.09,WUHU216HW,2013-02-18 18:52:00,
2013-02-18 12:57:00,40.1,34.7,29.71,NNW,338,9.4,10.5,81,0.01,,,0.09,WUHU216HW,2013-02-18 18:57:00,
2013-02-18 13:02:00,40.3,34.9,29.71,NNW,338,10.5,12.5,81,0.01,,,0.09,WUHU216HW,2013-02-18 19:02:00,
2013-02-18 13:07:00,40.3,34.7,29.71,North,0,10.5,12.5,80,0.01,,,0.09,WUHU216HW,2013-02-18 19:07:00,
2013-02-18 13:12:00,40.3,34.3,29.72,NNW,338,7.6,10.5,79,0.01,,,0.09,WUHU216HW,2013-02-18 19:12:00,
2013-02-18 13:17:00,40.5,34.1,29.72,NNW,338,9.8,10.5,78,0.01,,,0.09,WUHU216HW,2013-02-18 19:17:00,
2013-02-18 13:22:00,40.3,33.7,29.72,NW,315,11.2,13.0,77,0.01,,,0.09,WUHU216HW,2013-02-18 19:22:00,
2013-02-18 13:27:00,40.5,33.9,29.73,NW,315,11.0,13.0,77,0.00,,,0.09,WUHU216HW,2013-02-18 19:27:00,
2013-02-18 13:32:00,40.3,33.7,29.73,NW,315,12.3,12.3,77,0.00,,,0.09,WUHU216HW,2013-02-18 19:32:00,
2013-02-18 13:37:00,40.5,33.9,29.73,NNW,338,11.2,12.3,77,0.00,,,0.09,WUHU216HW,2013-02-18 19:37:00,
2013-02-18 13:42:00,40.7,33.9,29.73,NNW,338,6.3,12.1,77,0.00,,,0.09,WUHU216HW,2013-02-18 19:42:00,
2013-02-18 13:47:00,40.7,33.7,29.73,NNW,338,10.5,12.1,76,0.00,,,0.09,WUHU216HW,2013-02-18 19:47:00,
2013-02-18 13:52:00,40.7,33.9,29.74,NW,315,9.2,11.2,77,0.00,,,0.09,WUHU216HW,2013-02-18 19:52:00,
2013-02-18 13:57:00,40.7,33.7,29.74,North,0,7.6,13.4,76,0.00,,,0.09,WUHU216HW,2013-02-18 19:57:00,
2013-02-18 14:02:00,40.7,33.3,29.73,NW,315,11.4,13.4,75,0.00,,,0.09,WUHU216HW,2013-02-18 20:02:00,
2013-02-18 14:07:00,40.7,33.0,29.74,NNW,338,15.4,15.4,74,0.00,,,0.09,WUHU216HW,2013-02-18 20:07:00,
2013-02-18 14:13:00,40.5,32.9,29.74,NW,315,11.2,16.8,74,0.00,,,0.09,WUHU216HW,2013-02-18 20:13:00,
2013-02-18 14:18:00,40.3,32.3,29.74,WNW,293,18.8,18.8,73,0.00,,,0.09,WUHU216HW,2013-02-18 20:18:00,
2013-02-18 14:23:00,39.6,31.6,29.75,North,0,20.8,20.8,73,0.00,,,0.09,WUHU216HW,2013-02-18 20:23:00,
2013-02-18 14:28:00,38.5,31.6,29.75,NW,315,18.8,20.8,76,0.00,,,0.09,WUHU216HW,2013-02-18 20:28:00,
2013-02-18 14:33:00,37.8,30.6,29.75,NW,315,14.3,20.8,75,0.00,,,0.09,WUHU216HW,2013-02-18 20:33:00,
2013-02-18 14:38:00,37.6,31.1,29.76,NW,315,13.4,18.8,77,0.00,,,0.09,WUHU216HW,2013-02-18 20:38:00,
2013-02-18 14:43:00,37.3,30.4,29.76,NNW,338,17.4,20.1,76,0.00,,,0.09,WUHU216HW,2013-02-18 20:43:00,
2013-02-18 14:48:00,36.9,30.3,29.77,NNW,338,17.7,20.1,77,0.00,,,0.09,WUHU216HW,2013-02-18 20:48:00,
2013-02-18 14:53:00,36.5,30.0,29.77,NW,315,13.6,20.1,77,0.00,,,0.09,WUHU216HW,2013-02-18 20:53:00,
2013-02-18 14:58:00,36.7,29.9,29.78,NW,315,14.5,20.1,76,0.00,,,0.09,WUHU216HW,2013-02-18 20:58:00,
2013-02-18 15:03:00,36.4,28.8,29.78,NNW,338,13.2,16.3,74,0.00,,,0.09,WUHU216HW,2013-02-18 21:03:00,
2013-02-18 15:08:00,36.2,29.4,29.79,NW,315,13.6,16.3,76,0.00,,,0.09,WUHU216HW,2013-02-18 21:08:00,
2013-02-18 15:13:00,36.2,28.4,29.79,NNW,338,21.0,21.0,73,0.00,,,0.09,WUHU216HW,2013-02-18 21:13:00,
2013-02-18 15:18:00,36.0,28.4,29.79,NNW,338,13.4,21.0,74,0.00,,,0.09,WUHU216HW,2013-02-18 21:18:00,
2013-02-18 15:23:00,35.5,28.3,29.79,NW,315,17.0,21.0,75,0.00,,,0.09,WUHU216HW,2013-02-18 21:23:00,
2013-02-18 15:28:00,35.3,28.1,29.80,NNW,338,17.7,18.8,75,0.00,,,0.09,WUHU216HW,2013-02-18 21:28:00,
2013-02-18 15:33:00,35.6,28.8,29.80,North,0,14.5,18.8,76,0.00,,,0.09,WUHU216HW,2013-02-18 21:33:00,
2013-02-18 15:39:00,36.2,28.6,29.80,WNW,293,15.2,17.7,74,0.00,,,0.09,WUHU216HW,2013-02-18 21:39:00,
2013-02-18 15:44:00,36.0,28.2,29.80,NNW,338,19.2,19.2,73,0.00,,,0.09,WUHU216HW,2013-02-18 21:44:00,
2013-02-18 15:49:00,35.6,28.1,29.81,NW,315,13.9,19.2,74,0.00,,,0.09,WUHU216HW,2013-02-18 21:49:00,
2013-02-18 15:54:00,35.5,28.6,29.81,WNW,293,15.7,19.2,76,0.00,,,0.09,WUHU216HW,2013-02-18 21:54:00,
2013-02-18 15:59:00,34.9,28.1,29.82,NW,315,12.1,15.7,76,0.00,,,0.09,WUHU216HW,2013-02-18 21:59:00,
2013-02-18 16:04:00,34.9,27.7,29.82,NW,315,11.2,16.1,75,0.00,,,0.09,WUHU216HW,2013-02-18 22:04:00,
2013-02-18 16:09:00,34.7,27.2,29.83,NW,315,9.2,16.1,74,0.00,,,0.09,WUHU216HW,2013-02-18 22:09:00,
2013-02-18 16:14:00,34.7,27.2,29.83,NW,315,16.3,16.3,74,0.00,,,0.09,WUHU216HW,2013-02-18 22:14:00,
2013-02-18 16:19:00,34.4,26.6,29.84,NW,315,11.0,17.2,73,0.00,,,0.09,WUHU216HW,2013-02-18 22:19:00,
2013-02-18 16:24:00,34.2,26.4,29.84,NNW,338,17.7,17.7,73,0.00,,,0.09,WUHU216HW,2013-02-18 22:24:00,
2013-02-18 16:29:00,34.0,25.8,29.84,NW,315,11.4,21.9,72,0.00,,,0.09,WUHU216HW,2013-02-18 22:29:00,
2013-02-18 16:34:00,34.0,25.6,29.85,NW,315,12.8,21.9,71,0.00,,,0.09,WUHU216HW,2013-02-18 22:34:00,
2013-02-18 16:39:00,34.2,25.4,29.85,WNW,293,10.3,18.1,70,0.00,,,0.09,WUHU216HW,2013-02-18 22:39:00,
2013-02-18 16:44:00,34.0,24.8,29.86,NNW,338,19.0,19.0,69,0.00,,,0.09,WUHU216HW,2013-02-18 22:44:00,
2013-02-18 16:49:00,33.7,24.8,29.86,NNW,338,9.8,19.0,70,0.00,,,0.09,WUHU216HW,2013-02-18 22:49:00,
2013-02-18 16:54:00,33.7,24.5,29.87,North,0,16.1,18.1,69,0.00,,,0.09,WUHU216HW,2013-02-18 22:54:00,
2013-02-18 16:59:00,33.7,24.5,29.87,NNW,338,11.2,17.2,69,0.00,,,0.09,WUHU216HW,2013-02-18 22:59:00,
2013-02-18 17:04:00,33.7,23.8,29.87,NW,315,11.4,18.3,67,0.00,,,0.09,WUHU216HW,2013-02-18 23:04:00,
2013-02-18 17:09:00,33.5,23.9,29.88,NNW,338,18.3,18.3,68,0.00,,,0.09,WUHU216HW,2013-02-18 23:09:00,
2013-02-18 17:14:00,33.5,23.9,29.88,WNW,293,12.5,18.3,68,0.00,,,0.09,WUHU216HW,2013-02-18 23:14:00,
2013-02-18 17:19:00,33.5,23.6,29.88,North,0,20.4,20.4,67,0.00,,,0.09,WUHU216HW,2013-02-18 23:19:00,
2013-02-18 17:24:00,33.5,23.2,29.88,NNW,338,12.1,20.6,66,0.00,,,0.09,WUHU216HW,2013-02-18 23:24:00,
2013-02-18 17:29:00,33.1,23.0,29.89,NNW,338,15.0,20.6,66,0.00,,,0.09,WUHU216HW,2013-02-18 23:29:00,
2013-02-18 17:34:00,32.8,22.6,29.90,NNW,338,13.4,15.7,66,0.00,,,0.09,WUHU216HW,2013-02-18 23:34:00,
2013-02-18 17:39:00,32.4,22.0,29.90,NNW,338,13.4,15.9,65,0.00,,,0.09,WUHU216HW,2013-02-18 23:39:00,
2013-02-18 17:44:00,32.4,22.3,29.90,NW,315,6.9,15.9,66,0.00,,,0.09,WUHU216HW,2013-02-18 23:44:00,
2013-02-18 17:49:00,32.4,22.7,29.91,NNW,338,10.1,15.9,67,0.00,,,0.09,WUHU216HW,2013-02-18 23:49:00,
2013-02-18 17:54:00,32.2,22.5,29.91,WNW,293,9.8,17.9,67,0.00,,,0.09,WUHU216HW,2013-02-18 23:54:00,
2013-02-18 17:59:00,31.9,21.8,29.92,NW,315,16.1,17.2,66,0.00,,,0.09,WUHU216HW,2013-02-18 23:59:00,
2013-02-18 18:04:00,31.5,21.4,29.92,NW,315,13.4,21.5,66,0.00,,,0.09,WUHU216HW,2013-02-19 00:04:00,
2013-02-18 18:09:00,31.3,21.2,29.93,NW,315,12.8,21.5,66,0.00,,,0.09,WUHU216HW,2013-02-19 00:09:00,
2013-02-18 18:14:00,30.8,20.3,29.93,NW,315,22.1,22.1,65,0.00,,,0.09,WUHU216HW,2013-02-19 00:14:00,
2013-02-18 18:19:00,30.4,20.0,29.94,NW,315,18.6,22.1,65,0.00,,,0.09,WUHU216HW,2013-02-19 00:19:00,
2013-02-18 18:24:00,30.2,19.8,29.95,NW,315,14.3,20.4,65,0.00,,,0.09,WUHU216HW,2013-02-19 00:24:00,
2013-02-18 18:29:00,30.1,20.0,29.95,NW,315,10.5,20.4,66,0.00,,,0.09,WUHU216HW,2013-02-19 00:29:00,
2013-02-18 18:34:00,29.9,19.8,29.96,NW,315,8.1,17.2,66,0.00,,,0.09,WUHU216HW,2013-02-19 00:34:00,
2013-02-18 18:39:00,29.7,19.7,29.96,WNW,293,14.3,17.2,66,0.00,,,0.09,WUHU216HW,2013-02-19 00:39:00,
2013-02-18 18:44:00,29.5,19.5,29.96,WNW,293,10.7,16.6,66,0.00,,,0.09,WUHU216HW,2013-02-19 00:44:00,
2013-02-18 18:49:00,29.3,19.4,29.97,NW,315,13.0,16.6,66,0.00,,,0.09,WUHU216HW,2013-02-19 00:49:00,
2013-02-18 18:54:00,29.3,19.4,29.97,NW,315,9.8,13.0,66,0.00,,,0.09,WUHU216HW,2013-02-19 00:54:00,
2013-02-18 18:59:00,29.2,19.2,29.97,NW,315,9.2,10.7,66,0.00,,,0.09,WUHU216HW,2013-02-19 00:59:00,
2013-02-18 19:04:00,29.2,18.8,29.97,WNW,293,8.5,11.9,65,0.00,,,0.09,WUHU216HW,2013-02-19 01:04:00,
2013-02-18 19:09:00,29.2,18.8,29.98,NNW,338,9.6,11.9,65,0.00,,,0.09,WUHU216HW,2013-02-19 01:09:00,
2013-02-18 19:14:00,29.0,18.6,29.98,NW,315,14.1,14.1,65,0.00,,,0.09,WUHU216HW,2013-02-19 01:14:00,
2013-02-18 19:19:00,29.0,18.6,29.98,NW,315,6.0,14.1,65,0.00,,,0.09,WUHU216HW,2013-02-19 01:19:00,
2013-02-18 19:24:00,28.8,18.6,29.99,WNW,293,13.2,13.2,65,0.00,,,0.09,WUHU216HW,2013-02-19 01:24:00,
2013-02-18 19:29:00,28.8,18.9,29.99,NW,315,9.8,13.2,66,0.00,,,0.09,WUHU216HW,2013-02-19 01:29:00,
2013-02-18 19:34:00,28.8,18.9,29.99,NW,315,8.5,12.8,66,0.00,,,0.09,WUHU216HW,2013-02-19 01:34:00,
2013-02-18 19:39:00,28.6,18.4,29.99,NW,315,10.5,13.6,65,0.00,,,0.09,WUHU216HW,2013-02-19 01:39:00,
2013-02-18 19:44:00,28.6,18.7,29.99,West,270,9.2,13.6,66,0.00,,,0.09,WUHU216HW,2013-02-19 01:44:00,
2013-02-18 19:49:00,28.4,18.5,30.00,WNW,293,9.6,13.6,66,0.00,,,0.09,WUHU216HW,2013-02-19 01:49:00,
2013-02-18 19:54:00,28.4,18.5,30.00,NW,315,12.5,13.6,66,0.00,,,0.09,WUHU216HW,2013-02-19 01:54:00,
2013-02-18 19:59:00,28.3,18.7,30.00,NW,315,11.9,12.5,67,0.00,,,0.09,WUHU216HW,2013-02-19 01:59:00,
2013-02-18 20:04:00,28.3,18.7,30.00,NW,315,9.2,11.9,67,0.00,,,0.09,WUHU216HW,2013-02-19 02:04:00,
2013-02-18 20:09:00,28.1,18.5,30.01,NNW,338,4.0,11.9,67,0.00,,,0.09,WUHU216HW,2013-02-19 02:09:00,
2013-02-18 20:14:00,28.1,18.5,30.01,NW,315,5.1,11.2,67,0.00,,,0.09,WUHU216HW,2013-02-19 02:14:00,
2013-02-18 20:19:00,28.1,18.5,30.01,NW,315,6.3,11.2,67,0.00,,,0.09,WUHU216HW,2013-02-19 02:19:00,
2013-02-18 20:24:00,28.1,18.5,30.01,NW,315,8.5,11.2,67,0.00,,,0.09,WUHU216HW,2013-02-19 02:24:00,
2013-02-18 20:29:00,28.1,18.5,30.01,WNW,293,10.5,12.1,67,0.00,,,0.09,WUHU216HW,2013-02-19 02:29:00,
2013-02-18 20:34:00,27.9,18.4,30.01,NW,315,11.2,12.1,67,0.00,,,0.09,WUHU216HW,2013-02-19 02:34:00,
2013-02-18 20:39:00,27.9,18.4,30.01,WNW,293,15.7,16.3,67,0.00,,,0.09,WUHU216HW,2013-02-19 02:39:00,
2013-02-18 20:44:00,27.9,18.4,30.01,West,270,8.7,16.3,67,0.00,,,0.09,WUHU216HW,2013-02-19 02:44:00,
2013-02-18 20:49:00,27.7,18.2,30.01,NNW,338,9.8,12.8,67,0.00,,,0.09,WUHU216HW,2013-02-19 02:49:00,
2013-02-18 20:54:00,27.7,18.2,30.02,NNW,338,7.6,12.5,67,0.00,,,0.09,WUHU216HW,2013-02-19 02:54:00,
2013-02-18 20:59:00,27.7,18.2,30.02,WNW,293,9.4,13.0,67,0.00,,,0.09,WUHU216HW,2013-02-19 02:59:00,
2013-02-18 21:05:00,27.7,18.5,30.02,WNW,293,12.8,13.0,68,0.00,,,0.09,WUHU216HW,2013-02-19 03:05:00,
2013-02-18 21:10:00,27.7,18.5,30.02,NW,315,9.8,15.4,68,0.00,,,0.09,WUHU216HW,2013-02-19 03:10:00,
2013-02-18 21:15:00,27.7,18.5,30.03,NNW,338,11.6,15.4,68,0.00,,,0.09,WUHU216HW,2013-02-19 03:15:00,
2013-02-18 21:20:00,27.5,18.4,30.03,WNW,293,9.6,11.6,68,0.00,,,0.09,WUHU216HW,2013-02-19 03:20:00,
2013-02-18 21:25:00,27.5,18.7,30.03,NNW,338,12.5,12.5,69,0.00,,,0.09,WUHU216HW,2013-02-19 03:25:00,
2013-02-18 21:30:00,27.5,18.4,30.03,NW,315,11.0,16.3,68,0.00,,,0.09,WUHU216HW,2013-02-19 03:30:00,
2013-02-18 21:35:00,27.4,18.5,30.03,North,0,12.8,16.3,69,0.00,,,0.09,WUHU216HW,2013-02-19 03:35:00,
2013-02-18 21:40:00,27.4,18.5,30.04,NNW,338,9.2,13.4,69,0.00,,,0.09,WUHU216HW,2013-02-19 03:40:00,
2013-02-18 21:45:00,27.2,18.4,30.04,NNW,338,6.7,13.4,69,0.00,,,0.09,WUHU216HW,2013-02-19 03:45:00,
2013-02-18 21:50:00,27.0,18.2,30.04,NNW,338,7.2,9.8,69,0.00,,,0.09,WUHU216HW,2013-02-19 03:50:00,
2013-02-18 21:55:00,27.0,18.2,30.05,NW,315,6.5,9.8,69,0.00,,,0.09,WUHU216HW,2013-02-19 03:55:00,
2013-02-18 22:00:00,27.0,18.5,30.05,WNW,293,6.3,12.3,70,0.00,,,0.09,WUHU216HW,2013-02-19 04:00:00,
2013-02-18 22:05:00,26.8,18.4,30.05,WNW,293,11.0,11.0,70,0.00,,,0.09,WUHU216HW,2013-02-19 04:05:00,
2013-02-18 22:10:00,26.8,18.4,30.05,NW,315,10.3,11.0,70,0.00,,,0.09,WUHU216HW,2013-02-19 04:10:00,
2013-02-18 22:15:00,26.6,18.2,30.06,NNW,338,11.4,11.4,70,0.00,,,0.09,WUHU216HW,2013-02-19 04:15:00,
2013-02-18 22:20:00,26.5,18.3,30.06,WNW,293,10.7,11.4,71,0.00,,,0.09,WUHU216HW,2013-02-19 04:20:00,
2013-02-18 22:25:00,26.3,18.1,30.06,NW,315,9.4,13.9,71,0.00,,,0.09,WUHU216HW,2013-02-19 04:25:00,
2013-02-18 22:30:00,26.3,18.1,30.06,WNW,293,13.4,13.9,71,0.00,,,0.09,WUHU216HW,2013-02-19 04:30:00,
2013-02-18 22:35:00,26.3,17.8,30.07,WNW,293,10.5,15.0,70,0.00,,,0.09,WUHU216HW,2013-02-19 04:35:00,
2013-02-18 22:40:00,26.3,17.1,30.07,NW,315,17.4,17.9,68,0.00,,,0.09,WUHU216HW,2013-02-19 04:40:00,
2013-02-18 22:45:00,26.3,16.7,30.07,NNW,338,12.8,17.9,67,0.00,,,0.09,WUHU216HW,2013-02-19 04:45:00,
2013-02-18 22:50:00,26.3,16.4,30.07,NW,315,9.6,15.0,66,0.00,,,0.09,WUHU216HW,2013-02-19 04:50:00,
2013-02-18 22:55:00,26.1,15.8,30.07,NW,315,12.5,15.0,65,0.00,,,0.09,WUHU216HW,2013-02-19 04:55:00,
2013-02-18 23:00:00,26.1,16.2,30.07,WNW,293,11.9,13.0,66,0.00,,,0.09,WUHU216HW,2013-02-19 05:00:00,
2013-02-18 23:01:00,26.1,16.2,30.07,NW,315,9.6,13.0,66,0.00,,,0.09,WUHU216HW,2013-02-19 05:01:00,
2013-02-18 23:06:00,25.9,15.7,30.08,NNW,338,14.5,14.5,65,0.00,,,0.09,WUHU216HW,2013-02-19 05:06:00,
2013-02-18 23:11:00,25.9,15.3,30.08,NW,315,10.7,15.2,64,0.00,,,0.09,WUHU216HW,2013-02-19 05:11:00,
2013-02-18 23:16:00,25.9,15.0,30.08,NNW,338,12.1,15.2,63,0.00,,,0.09,WUHU216HW,2013-02-19 05:16:00,
2013-02-18 23:21:00,25.7,14.5,30.08,NW,315,11.9,19.0,62,0.00,,,0.09,WUHU216HW,2013-02-19 05:21:00,
2013-02-18 23:26:00,25.7,14.5,30.08,NNW,338,13.4,19.0,62,0.00,,,0.09,WUHU216HW,2013-02-19 05:26:00,
2013-02-18 23:31:00,25.6,14.3,30.08,NNW,338,12.5,15.0,62,0.00,,,0.09,WUHU216HW,2013-02-19 05:31:00,
2013-02-18 23:36:00,25.6,14.3,30.08,WNW,293,9.8,12.8,62,0.00,,,0.09,WUHU216HW,2013-02-19 05:36:00,
2013-02-18 23:41:00,25.6,14.3,30.08,NW,315,7.6,12.8,62,0.00,,,0.09,WUHU216HW,2013-02-19 05:41:00,
2013-02-18 23:46:00,25.2,14.0,30.08,NW,315,12.3,12.8,62,0.00,,,0.09,WUHU216HW,2013-02-19 05:46:00,
2013-02-18 23:51:00,25.0,14.1,30.09,WNW,293,8.5,12.3,63,0.00,,,0.09,WUHU216HW,2013-02-19 05:51:00,
2013-02-18 23:56:00,25.0,14.1,30.09,NNW,338,6.0,10.5,63,0.00,,,0.00,WUHU216HW,2013-02-19 05:56:00,